CW5404 Weather Reports


time (UTC)temp
C
wind
direction
speed
KPH
gust
KPH
rain 1hr
cm
rain 24hr
cm
rain mn
cm
humidity
%
barometer
mb
20260905174936 15 360 1.6 6.4 0.03 0.51 0.03 99 1016.6
20260905174505 15 360 1.6 6.4 0.03 0.51 0.03 100 1016.6
20260905174006 15 360 3.2 6.4 0.03 0.51 0.03 100 1016.6
20260905173005 14 108 4.8 4.8 0.03 0.51 0.03 100 1016.5
20260905172505 14 360 1.6 4.8 0.03 0.51 0.03 100 1016.4
20260905172005 14 360 3.2 4.8 0.03 0.51 0.03 100 1016.4
20260905171505 14 128 3.2 4.8 0.03 0.51 0.03 100 1016.4
20260905170006 13 146 0.0 4.8 0.03 0.51 0.03 100 1016.4
20260905165505 13 124 3.2 4.8 0.03 0.51 0.03 100 1016.5
20260905164005 13 157 1.6 4.8 0.00 0.48 0.00 100 1016.4
20260905163505 13 133 1.6 4.8 0.00 0.48 0.00 100 1016.4
20260905163005 13 176 0.0 4.8 0.00 0.48 0.00 100 1016.4
20260905162005 13 105 3.2 6.4 0.00 0.48 0.00 100 1016.4
20260905161505 13 88 0.0 6.4 0.00 0.48 0.00 100 1016.4
20260905161004 13 63 3.2 4.8 0.00 0.48 0.00 100 1016.5
20260905160505 13 53 1.6 4.8 0.00 0.48 0.00 100 1016.5
20260905160004 13 133 1.6 4.8 0.00 0.48 0.00 100 1016.5
20260905154505 13 138 1.6 3.2 0.00 0.48 0.00 98 1016.5
20260905154005 13 148 0.0 3.2 0.00 0.48 0.00 98 1016.4
20260905153504 13 142 1.6 3.2 0.00 0.48 0.00 97 1016.4
20260905153004 13 160 3.2 3.2 0.00 0.48 0.00 98 1016.4
20260905152504 13 155 0.0 4.8 0.00 0.48 0.00 97 1016.3
20260905151005 13 160 1.6 4.8 0.00 0.48 0.00 100 1016.3
20260905150505 13 162 0.0 3.2 0.00 0.48 0.00 100 1016.3
20260905150005 13 171 1.6 3.2 0.00 0.48 0.00 100 1016.3
20260905145504 13 169 0.0 0.0 0.00 0.48 0.00 100 1016.4
20260905145005 13 169 0.0 0.0 0.00 0.48 0.00 100 1016.4
20260905144505 13 124 0.0 0.0 0.00 0.48 0.00 100 1016.4
20260905144005 13 123 0.0 3.2 0.00 0.48 0.00 100 1016.3
20260905143504 13 117 0.0 3.2 0.00 0.48 0.00 100 1016.3
20260905143004 13 115 0.0 0.0 0.00 0.48 0.00 100 1016.3
20260905141504 13 115 0.0 3.2 0.00 0.48 0.00 100 1016.2
20260905141004 13 115 0.0 3.2 0.00 0.48 0.00 100 1016.2
20260905140504 13 116 1.6 3.2 0.00 0.48 0.00 100 1016.2
20260905140005 13 116 0.0 0.0 0.00 0.48 0.00 100 1016.2
20260905135004 13 115 0.0 0.0 0.00 0.48 0.00 100 1016.3
20260905134504 13 126 0.0 0.0 0.00 0.48 0.00 100 1016.3
20260905134005 13 126 0.0 0.0 0.00 0.48 0.00 100 1016.2
20260905133504 13 126 0.0 1.6 0.00 0.48 0.00 100 1016.2
20260905133004 13 126 0.0 3.2 0.00 0.48 0.00 100 1016.2
20260905132504 13 126 0.0 4.8 0.00 0.48 0.00 100 1016.2
20260905132004 13 134 0.0 4.8 0.00 0.48 0.00 100 1016.2
20260905131504 13 156 0.0 3.2 0.00 0.48 0.00 100 1016.2
20260905131005 13 156 0.0 3.2 0.00 0.48 0.00 100 1016.1
20260905130504 13 156 0.0 1.6 0.00 0.48 0.00 100 1016.1
20260905130004 13 156 0.0 0.0 0.00 0.48 0.00 100 1016.1
20260905125004 13 156 0.0 0.0 0.00 0.48 0.00 100 1016.0
20260905124504 13 156 0.0 0.0 0.00 0.48 0.00 100 1016.0
20260905124004 13 156 0.0 0.0 0.00 0.48 0.00 100 1015.9
20260905123504 13 156 0.0 0.0 0.00 0.48 0.00 100 1015.9
20260905123004 13 156 0.0 0.0 0.00 0.48 0.00 99 1015.9
20260905121004 13 156 0.0 0.0 0.00 0.56 0.00 99 1015.7
20260905120505 13 156 0.0 0.0 0.00 0.56 0.00 98 1015.7
20260905120004 13 156 0.0 0.0 0.00 0.56 0.00 98 1015.7
20260905115504 13 156 0.0 0.0 0.00 0.56 0.00 98 1015.8
20260905115004 13 156 0.0 0.0 0.00 0.56 0.00 97 1015.8
20260905114504 13 156 0.0 0.0 0.00 0.56 0.00 97 1015.8
20260905114004 13 156 0.0 0.0 0.00 0.56 0.00 97 1015.8
20260905113504 13 156 0.0 3.2 0.00 0.56 0.00 97 1015.8
20260905113004 13 156 0.0 4.8 0.00 0.56 0.00 96 1015.8
20260905112504 13 156 0.0 4.8 0.00 0.56 0.00 96 1015.7
20260905112004 13 150 4.8 4.8 0.00 0.56 0.00 96 1015.7
20260905111504 13 127 0.0 3.2 0.00 0.56 0.00 97 1015.7
20260905111004 13 155 1.6 3.2 0.00 0.56 0.00 97 1015.7
20260905110504 13 166 3.2 3.2 0.00 0.56 0.00 97 1015.7
20260905110004 13 209 0.0 0.0 0.00 0.56 0.00 97 1015.7
20260905105504 13 209 0.0 0.0 0.00 0.56 0.00 97 1015.7
20260905105004 13 209 0.0 0.0 0.00 0.56 0.00 97 1015.7
20260905104504 13 209 0.0 0.0 0.00 0.56 0.00 96 1015.7
20260905104004 13 209 0.0 0.0 0.00 0.56 0.00 96 1015.7
20260905103504 13 209 0.0 0.0 0.00 0.56 0.00 96 1015.7
20260905103004 13 209 0.0 0.0 0.00 0.58 0.00 96 1015.7
20260905102504 13 209 0.0 0.0 0.00 0.58 0.00 96 1015.7
20260905102004 13 209 0.0 0.0 0.00 0.58 0.00 96 1015.7
20260905101004 13 209 0.0 3.2 0.00 0.58 0.00 96 1015.7
20260905100504 13 209 3.2 3.2 0.00 0.58 0.00 96 1015.7
20260905100004 13 209 0.0 4.8 0.00 0.58 0.00 96 1015.7
20260905095504 13 134 0.0 4.8 0.00 0.58 0.00 96 1015.6
20260905095006 13 139 4.8 4.8 0.00 0.58 0.00 96 1015.6
20260905094504 13 159 0.0 3.2 0.00 0.58 0.00 96 1015.6
20260905094003 13 156 1.6 4.8 0.00 0.58 0.00 96 1015.6
20260905093503 13 156 1.6 4.8 0.00 0.58 0.00 96 1015.6
20260905092503 13 175 0.0 1.6 0.00 0.58 0.00 96 1015.6
20260905092004 13 175 1.6 3.2 0.00 0.58 0.00 96 1015.6
20260905091503 13 175 0.0 3.2 0.00 0.58 0.00 96 1015.6
20260905091004 13 186 0.0 1.6 0.00 0.58 0.00 96 1015.6
20260905090004 13 187 0.0 1.6 0.00 0.61 0.00 96 1015.6
20260905085503 13 186 0.0 1.6 0.00 0.61 0.00 96 1015.6
20260905085003 13 186 0.0 3.2 0.00 0.61 0.00 96 1015.6
20260905084503 13 187 0.0 3.2 0.00 0.61 0.00 96 1015.6
20260905084003 13 198 3.2 3.2 0.00 0.64 0.00 96 1015.5
20260905083503 13 161 0.0 0.0 0.00 0.66 0.00 96 1015.5
20260905082503 13 161 0.0 6.4 0.00 0.69 0.00 96 1015.3
20260905082003 13 158 1.6 6.4 0.00 0.71 0.00 96 1015.3
20260905081503 13 168 1.6 3.2 0.00 0.74 0.00 96 1015.3
20260905081003 13 184 0.0 1.6 0.00 0.76 0.00 96 1015.2
20260905075503 13 184 0.0 1.6 0.00 0.84 0.00 96 1015.0
20260905075003 13 184 0.0 1.6 0.00 0.86 0.00 96 1015.0
20260905074503 13 184 1.6 1.6 0.00 0.86 0.00 96 1015.0
20260905074003 13 185 0.0 3.2 0.00 0.86 0.00 96 1015.0
20260905073503 13 185 0.0 4.8 0.00 0.89 0.00 96 1015.0
20260905073003 13 185 3.2 4.8 0.00 0.89 0.00 95 1015.0
20260905072003 13 144 0.0 4.8 0.00 0.89 0.00 95 1014.9
20260905071503 13 144 0.0 4.8 0.00 0.89 0.00 95 1014.9
20260905071003 13 140 1.6 4.8 0.00 0.89 0.00 95 1015.0
20260905070503 13 120 0.0 0.0 0.00 0.89 0.00 95 1015.0
20260905070003 13 114 0.0 0.0 0.00 0.89 0.00 94 1015.0
20260905065003 13 112 0.0 0.0 0.00 0.89 0.89 94 1015.1
20260905064502 13 110 0.0 0.0 0.00 0.89 0.89 94 1015.1
20260905064003 13 102 0.0 0.0 0.00 0.89 0.89 94 1014.9
20260905063002 13 100 0.0 3.2 0.00 0.91 0.89 93 1014.9
20260905062003 13 99 0.0 0.0 0.00 0.91 0.89 93 1014.7
20260905060502 13 98 0.0 0.0 0.00 0.91 0.89 93 1014.8
20260905060003 13 96 0.0 0.0 0.00 0.91 0.89 93 1014.8
20260905055502 13 117 0.0 0.0 0.00 0.91 0.89 92 1014.7
20260905055002 13 117 0.0 0.0 0.00 0.91 0.89 92 1014.7
20260905054002 13 117 0.0 0.0 0.00 0.91 0.89 92 1014.6
20260905053503 13 117 0.0 0.0 0.00 0.91 0.89 92 1014.6
20260905053003 13 117 0.0 0.0 0.00 0.91 0.89 92 1014.6
20260905052503 13 117 0.0 0.0 0.00 0.91 0.89 92 1014.5
20260905052003 13 117 0.0 0.0 0.00 0.91 0.89 92 1014.5
20260905051003 13 121 0.0 0.0 0.00 0.91 0.89 91 1014.6
20260905050502 13 121 0.0 0.0 0.00 0.91 0.89 91 1014.6
20260905050003 13 121 0.0 0.0 0.00 0.91 0.89 90 1014.6
20260905045502 13 121 0.0 0.0 0.00 0.91 0.89 90 1014.5
20260905044503 13 121 0.0 0.0 0.00 0.91 0.89 89 1014.5
20260905043502 13 121 0.0 0.0 0.00 0.91 0.89 88 1014.4
20260905043002 13 121 0.0 0.0 0.00 0.91 0.89 88 1014.4
20260905042502 13 121 0.0 3.2 0.00 0.91 0.89 88 1014.3
20260905042002 14 121 0.0 4.8 0.00 0.91 0.89 88 1014.3
20260905041502 14 138 1.6 4.8 0.00 0.91 0.89 87 1014.3
20260905041002 14 170 0.0 3.2 0.00 0.91 0.89 87 1014.2
20260905040502 14 185 0.0 6.4 0.00 0.91 0.89 87 1014.2
20260905040002 14 201 1.6 6.4 0.00 0.91 0.89 87 1014.2
20260905035502 14 190 0.0 8.0 0.00 0.91 0.89 87 1014.1
20260905035002 14 155 0.0 8.0 0.00 0.91 0.89 87 1014.1
20260905034501 14 169 0.0 1.6 0.00 0.91 0.89 87 1014.1
20260905033502 14 190 0.0 4.8 0.00 0.91 0.89 86 1014.0
20260905033001 14 140 0.0 3.2 0.00 0.91 0.89 86 1014.0
20260905032502 14 151 0.0 3.2 0.00 0.91 0.89 86 1013.8
20260905032002 14 159 0.0 3.2 0.00 0.91 0.89 85 1013.8
20260905031502 15 155 0.0 3.2 0.00 0.91 0.89 85 1013.8
20260905030001 15 196 0.0 6.4 0.00 0.94 0.89 84 1013.6
20260905025501 15 189 3.2 6.4 0.00 0.94 0.89 83 1013.5
20260905025001 15 180 1.6 6.4 0.00 0.94 0.89 82 1013.5
20260905024502 15 161 0.0 9.7 0.00 0.94 0.89 82 1013.5
20260905024002 15 179 1.6 9.7 0.00 0.94 0.89 82 1013.5
20260905023501 15 163 1.6 8.0 0.00 0.94 0.89 82 1013.5
20260905022502 15 172 1.6 6.4 0.00 0.97 0.89 81 1013.5
20260905022001 15 182 0.0 6.4 0.00 0.97 0.89 80 1013.5
20260905021502 15 161 0.0 6.4 0.00 0.97 0.89 80 1013.5
20260905020502 16 194 6.4 9.7 0.00 0.97 0.89 79 1013.5
20260905020001 16 167 0.0 3.2 0.00 0.97 0.89 79 1013.5
20260905015002 16 170 0.0 6.4 0.00 0.97 0.89 79 1013.5
20260905014502 16 173 0.0 6.4 0.00 0.97 0.89 78 1013.5
20260905013502 16 163 3.2 6.4 0.00 0.97 0.89 76 1013.4
20260905013001 16 187 0.0 6.4 0.00 0.97 0.89 76 1013.4
20260905012501 16 173 0.0 6.4 0.00 0.97 0.89 76 1013.1
20260905011502 16 182 4.8 9.7 0.00 0.97 0.89 75 1013.2
20260905011001 16 165 6.4 8.0 0.00 0.97 0.89 74 1013.1
20260905010502 16 132 3.2 8.0 0.00 0.97 0.89 73 1013.1
20260905010001 16 174 1.6 6.4 0.00 0.97 0.89 73 1013.1
20260905005501 16 136 0.0 9.7 0.00 0.97 0.89 73 1013.0
20260905005002 16 113 3.2 9.7 0.00 0.97 0.89 72 1013.0
20260905004501 17 158 1.6 11.3 0.00 0.97 0.89 72 1013.0
20260905003502 17 173 3.2 8.0 0.00 0.97 0.89 72 1012.8
20260905002001 17 176 3.2 11.3 0.00 0.97 0.89 72 1012.7
20260905001502 17 132 8.0 11.3 0.00 0.97 0.89 70 1012.7
20260905001001 17 212 4.8 11.3 0.00 0.97 0.89 69 1012.6
20260905000002 17 190 1.6 12.9 0.00 0.97 0.89 68 1012.6
20260904235502 17 200 3.2 17.7 0.00 0.97 0.89 69 1012.5
20260904235001 17 181 12.9 17.7 0.00 0.97 0.89 66 1012.5
20260904234501 18 192 8.0 14.5 0.00 0.97 0.89 66 1012.5
20260904233501 18 192 6.4 14.5 0.00 0.97 0.89 68 1012.3
20260904233001 18 155 3.2 12.9 0.00 0.97 0.89 69 1012.3
20260904232501 18 156 4.8 12.9 0.00 0.97 0.89 71 1012.4
20260904232001 17 151 3.2 8.0 0.00 0.97 0.89 75 1012.4
20260904231001 17 158 4.8 11.3 0.00 0.97 0.89 74 1012.4
20260904230001 18 126 6.4 12.9 0.00 0.97 0.89 72 1012.4
20260904225501 18 130 4.8 12.9 0.00 0.97 0.89 72 1012.3
20260904225001 18 195 8.0 11.3 0.00 0.97 0.89 70 1012.3
20260904224501 18 123 4.8 16.1 0.00 0.97 0.89 69 1012.3
20260904224001 18 240 9.7 16.1 0.00 0.97 0.89 72 1012.2
20260904223501 18 215 8.0 12.9 0.00 0.97 0.89 71 1012.2
20260904223001 18 188 9.7 12.9 0.00 0.97 0.89 72 1012.2
20260904222502 18 201 9.7 14.5 0.00 0.97 0.89 72 1012.2
20260904222001 18 175 6.4 14.5 0.00 0.97 0.89 74 1012.2
20260904221001 17 168 6.4 9.7 0.00 0.99 0.89 82 1012.2
20260904220501 17 165 4.8 11.3 0.00 0.99 0.89 83 1012.2
20260904220001 17 360 8.0 11.3 0.00 0.99 0.89 83 1012.2
20260904215001 16 360 0.0 11.3 0.00 0.99 0.89 84 1012.4
20260904214501 16 360 4.8 11.3 0.00 0.99 0.89 84 1012.3
20260904213501 16 360 0.0 11.3 0.00 0.99 0.89 87 1012.2
20260904213001 16 360 3.2 9.7 0.00 0.99 0.89 88 1012.2
20260904212001 15 360 1.6 8.0 0.00 0.99 0.89 89 1012.3
20260904211501 15 360 1.6 12.9 0.00 0.99 0.89 89 1012.3
20260904211001 15 360 4.8 12.9 0.03 0.99 0.89 89 1012.1
20260904210501 15 360 8.0 12.9 0.03 0.99 0.89 90 1012.1
20260904210001 15 360 4.8 9.7 0.05 0.99 0.89 92 1012.1
20260904205501 15 360 4.8 14.5 0.05 1.02 0.89 92 1012.1
20260904205001 15 360 6.4 14.5 0.05 1.02 0.89 93 1012.2
20260904204500 15 360 1.6 3.2 0.08 1.02 0.89 96 1012.2
20260904203501 15 360 1.6 4.8 0.20 1.02 0.89 95 1012.1
20260904202500 15 360 3.2 9.7 0.28 1.02 0.89 95 1012.2
20260904202001 15 360 0.0 4.8 0.30 1.04 0.89 95 1012.2
20260904201001 14 98 4.8 6.4 0.30 1.02 0.86 94 1012.2
20260904200501 14 157 4.8 6.4 0.36 1.04 0.86 94 1012.2
20260904200000 14 210 1.6 4.8 0.41 1.04 0.84 94 1012.2
20260904195500 14 167 3.2 3.2 0.43 1.09 0.84 95 1012.1
20260904195001 14 165 0.0 3.2 0.43 1.09 0.84 94 1012.1
20260904194501 14 165 1.6 3.2 0.41 1.09 0.81 94 1012.1
20260904194001 14 165 0.0 0.0 0.36 1.07 0.76 93 1012.1
20260904193500 14 165 0.0 0.0 0.28 0.99 0.69 93 1012.1
20260904192501 14 165 0.0 1.6 0.20 0.94 0.61 92 1012.3
20260904192001 14 165 0.0 1.6 0.18 0.91 0.58 92 1012.3
20260904191501 14 187 0.0 4.8 0.18 0.94 0.58 91 1012.3
20260904191001 14 207 0.0 9.7 0.15 0.91 0.56 90 1012.4
20260904190000 15 209 4.8 8.0 0.03 0.81 0.43 86 1012.4
20260904185500 15 360 4.8 8.0 0.00 0.79 0.41 86 1012.0
20260904185000 15 360 0.0 4.8 0.00 0.79 0.41 87 1012.0
20260904184500 15 360 0.0 3.2 0.00 0.79 0.41 89 1012.0
20260904183500 15 360 0.0 1.6 0.00 0.79 0.41 89 1011.9
20260904183000 15 360 0.0 4.8 0.00 0.79 0.41 91 1011.9
20260904182000 15 360 1.6 3.2 0.00 0.79 0.41 92 1011.9
20260904181500 15 360 1.6 4.8 0.00 0.79 0.41 94 1011.9
20260904181000 15 360 0.0 6.4 0.00 0.79 0.41 94 1011.9
20260904180500 15 360 3.2 6.4 0.00 0.79 0.41 95 1011.9
20260904180000 14 360 0.0 4.8 0.00 0.79 0.41 96 1011.9
20260904175500 14 360 1.6 4.8 0.00 0.79 0.41 97 1011.9